Regional Weather Roundup
Issued by NWS San Diego, CA

Home | Current Version | Previous Version | Text Only | Print | Product List | Glossary On
Versions: 1 2 3 4 5 6 7 8 9 10 11 12 13 14 15 16 17 18 19 20 21 22 23 24 25 26 27 28 29 30 31 32 33 34 35 36 37 38 39 40 41 42 43 44 45 46 47 48 49 50
000
ASUS46 KSGX 231011
RWRSGX

SAN DIEGO HOURLY WEATHER ROUNDUP
NATIONAL WEATHER SERVICE SAN DIEGO CA
300 AM PDT SUN APR 23 2017

NOTE: "FAIR" INDICATES FEW OR NO CLOUDS BELOW 12,000 FEET WITH NO
SIGNIFICANT WEATHER AND/OR OBSTRUCTIONS TO VISIBILITY.

CAZ042-043-060-061-PZZ750-775-231100-

GREATER SAN DIEGO AREA

CITY           SKY/WX    TMP DP  RH WIND       PRES   REMARKS
SAN DIEGO AP   FAIR      65  59  81 E6        29.87F
NATIONAL CITY    N/A     64  61  91 CALM      29.87S
CHULA VISTA      N/A     62  61  96 CALM      29.79S
IMPERIAL BEACH MOCLDY   N/A N/A N/A SE5       29.87F
BROWN FIELD    CLOUDY    60  60 100 CALM      29.88R FOG
MIRAMAR MCAS   MOCLDY    63  58  83 E6        29.86F
MONTGOMERY FLD CLOUDY    61  57  87 E7        29.87S

$$

NORTH SAN DIEGO COUNTY

CITY           SKY/WX    TMP DP  RH WIND       PRES   REMARKS
CAMP PENDLETON CLOUDY    56  51  84 NE5       29.86S
OCEANSIDE AP   MOCLDY    57  55  93 CALM      29.85S
OCEANSIDE HBR    N/A     58  56  91 CALM      29.88S
VISTA            N/A     60  54  81 CALM      29.83F
CARLSBAD       CLOUDY    62  60  93 CALM      29.85S
DEL MAR          N/A     60  59  95 CALM      29.86F
LA JOLLA SCRIP   N/A     62  60  94 E3        29.84F
FALLBROOK        N/A     58  55  92 CALM      29.84F
ESCONDIDO        N/A     62  55  77 SE1       29.85F
SAN MARCOS       N/A     59  55  84 E2        29.85F
POWAY            N/A     56  51  82 CALM      29.87F

$$

EAST SAN DIEGO COUNTY

CITY           SKY/WX    TMP DP  RH WIND       PRES   REMARKS
RAMONA         FAIR      50  47  89 SE6       29.88S
SANTEE LAKES     N/A     56  52  86 CALM      29.85S
LA MESA          N/A     60  58  93 CALM      29.79S
JAMUL            N/A     58  55  88 CALM      29.86R
DESCANSO N       N/A     51  34  53 NE8       29.78F
MT. LAGUNA OBS   N/A     55  26  32 W3        29.62F
CAMPO            N/A     45  34  65 NE6       29.89S

$$

ORANGE COUNTY AND THE LOS ANGELES BASIN

CITY           SKY/WX    TMP DP  RH WIND       PRES   REMARKS
JOHN WAYNE AP  FAIR      64  57  78 CALM      29.83F
LAKE FOREST FR   N/A     60  43  53 CALM      29.71F
HUNTINGTON BCH   N/A     58  56  92 CALM      29.85F
LOS ALAMITOS   FAIR      60  56  87 W5        29.84S
FULLERTON      FAIR      64  57  78 CALM      29.83F
LONG BEACH     FAIR      62  52  69 CALM      29.84S
L.A. AP        FAIR      59  55  87 W7        29.83F
L.A. DOWNTOWN  FAIR      63  52  67 CALM      29.83S

$$

THE INLAND EMPIRE

CITY           SKY/WX    TMP DP  RH WIND       PRES   REMARKS
CORONA         FAIR      55  49  80 E3        29.84F
CHINO          FAIR      60  51  72 CALM      29.85F
ONTARIO        MOCLDY    64  47  53 CALM      29.84F
SAN BERNARDINO FAIR      64  43  45 CALM      29.85S
RIVERSIDE AP   FAIR      60  47  61 E3        29.85F
MORENO VALLEY    N/A     61  45  55 CALM      27.98S
MARCH ARB      FAIR      57  42  58 W3        29.86S
HORSETHIEF CYN   N/A     59  37  43 W3        29.82S
PERRIS           N/A     59  47  64 CALM      29.87R
HEMET EAST       N/A     62  25  24 CALM      29.86F
FRENCH VALLEY  FAIR      57  39  51 CALM      29.87F
TEMECULA         N/A     61  50  67 S2        29.92F

$$

SAN BERNARDINO AND RIVERSIDE COUNTY MOUNTAINS

CITY           SKY/WX    TMP DP  RH WIND       PRES   REMARKS
BIG BEAR AP    FAIR      36  27  69 CALM      30.07F
ANGELUS OAKS     N/A     49  28  45 CALM      29.74F
PINE COVE        N/A     53  23  31 N2        29.79F

$$

SOUTHERN DESERT INCLUDING THE COACHELLA VALLEY

CITY           SKY/WX    TMP DP  RH WIND       PRES   REMARKS
PALM SPRINGS   FAIR      74  38  27 N5        29.75F
PALM DESERT      N/A     70  44  39 CALM        N/A
THERMAL        FAIR      58  39  49 S3        29.70S
BLYTHE         FAIR      66  29  24 N6        29.73S
IMPERIAL AP    FAIR      68  37  32 W3        29.71F
EL CENTRO NAS  FAIR      70  27  20 W9        29.73F
YUMA AZ        FAIR      71  36  27 SE5       29.73

$$

UPPER DESERT

CITY           SKY/WX    TMP DP  RH WIND       PRES   REMARKS
VICTORVILLE AP FAIR      59  36  41 CALM      29.89F
HESPERIA         N/A     65  31  27 SW1       29.88F
PALMDALE       FAIR      62  45  53 NW5       29.87F
LANCASTER      FAIR      61  42  49 W22       29.87F
EDWARDS AFB    FAIR      57  38  49 S5        29.84F
DAGGETT        FAIR      68  32  26 W15       29.81F
29 PALMS N     FAIR      64  30  27 CALM      29.88F
NEEDLES        FAIR      68  22  17 NW5       29.75F

$$

REGIONAL REPORTS

CITY           SKY/WX    TMP DP  RH WIND       PRES   REMARKS
SANTA BARBARA  FAIR      58  55  90 CALM      29.80F
SANDBERG       FAIR      51  41  68 NW13      29.97F
LAS VEGAS NV   MOCLDY    68  23  18 SW5       29.78F
PHOENIX AZ     FAIR      73  28  18 E7        29.78R
TIJUANA        FOG       59  55  88 NW6       29.90  VSB 1
ENSENADA NW      N/A     61  32  33 CALM      29.85R

$$

OFFSHORE ISLANDS

CITY           SKY/WX    TMP DP  RH WIND       PRES   REMARKS
CATALINA ARPT  FAIR      65  38  36 W6        29.88S
SAN NICOLAS IS FAIR     N/A N/A N/A NW30G40   29.85F

$$

MARINE AND OFFSHORE BUOY REPORTS

STATION/POSITION SKY/WX   TEMP    WIND        PRES    VSBY  SWELL
                          AIR SEA DIR/SP/G                  HT/PER/DIR
                          (F)     (DEG/KT/KT) (MB)    (MI)  (FT/S/D)
TANNER BANKS               58 58  310/ 19/ 23 1011.7F         3/210/15
S CLEMENTE BASIN           61 63  280/ 14/ 16 1010.6F         5/290/ 8
SAN NICOLAS IS.               56                N/A           3/190/15
SO. S. ROSA ISLA           55 56  300/ 23/ 29 1011.2F         3/280/16
W. S. BARBARA CH           54 52  320/ 21/ 25 1011.4F         3/250/16
M. S. BARBARA CH                  260/ 16/ 17 1010.0F
S. MONICA BASIN            59 60  250/  6/  8 1010.0F         5/270/ 6
S PEDRO CHANNEL               62                N/A           2/230/17
CMP PENDLETON NS              61                N/A           2/210/15
OCEANSIDE OFFSHR              63                N/A           3/200/15
TORREY PINES OTR              65                N/A           3/210/15
POINT LOMA SOUTH              65                N/A           3/180/17

$$





USA.gov is the U.S. government's official web portal to all federal, state and local government web resources and services.